Regional Weather Roundup
Issued by NWS

Home | Current Version | Previous Version | Graphics & Text | Print | Product List | Glossary On
Versions: 1 2 3 4 5 6 7 8 9 10 11 12 13 14 15 16 17 18 19 20 21 22 23 24 25 26 27 28 29 30 31 32 33 34 35 36 37 38 39 40 41 42 43 44 45 46 47 48 49 50
000
ASUS43 KBIS 230010
RWRND

NORTH DAKOTA REGIONAL WEATHER ROUNDUP
NATIONAL WEATHER SERVICE BISMARCK ND
600 PM CST SUN JAN 22 2017

NOTE: "FAIR" INDICATES FEW OR NO CLOUDS BELOW 12,000 FEET WITH NO
SIGNIFICANT WEATHER AND/OR OBSTRUCTIONS TO VISIBILITY.


NDZ001>003-009>011-017-230100-
NORTHWEST NORTH DAKOTA

CITY           SKY/WX    TMP DP  RH WIND       PRES   REMARKS
WILLISTON      CLOUDY    30  24  78 W9        29.82R
6HR MIN TEMP:  30; 6HR MAX TEMP:  31;

MINOT          CLOUDY    32  29  88 W6        29.78R
MINOT AFB      CLOUDY    30  27  88 NW10      29.77R
$$

NDZ018>021-031>035-040>046-230100-
SOUTHWEST NORTH DAKOTA

CITY           SKY/WX    TMP DP  RH WIND       PRES   REMARKS
BISMARCK       CLOUDY    33  28  81 W12       29.84R
6HR MIN TEMP:  32; 6HR MAX TEMP:  34;

DICKINSON      CLOUDY    26  23  88 W16       29.79S WCI  14
GARRISON         N/A     30  26  85 W14       29.79R WCI  19
6HR MIN TEMP:  30; 6HR MAX TEMP:  32;

HETTINGER ARPT CLOUDY    26  22  84 W17       29.84R WCI  13
$$

NDZ004>008-012>016-024-026-027-054-230100-
NORTHEAST NORTH DAKOTA

CITY           SKY/WX    TMP DP  RH WIND       PRES   REMARKS
GRAND FORKS    CLOUDY    33  29  85 SW3       29.76R
GRND FRKS AFB  CLOUDY    33  30  89 W5        29.76R
DEVILS LAKE    CLOUDY    29  26  89 W16       29.75S WCI  17
$$

NDZ022-023-025-028>030-036>039-047>053-230100-
SOUTHEAST NORTH DAKOTA

CITY           SKY/WX    TMP DP  RH WIND       PRES   REMARKS
FARGO          CLOUDY    34  31  88 NW8       29.78R FOG
6HR MIN TEMP:  34; 6HR MAX TEMP:  36;

JAMESTOWN      CLOUDY    33  28  81 NW16      29.78R
$$





USA.gov is the U.S. government's official web portal to all federal, state and local government web resources and services.